CW1734 Weather Reports


time (UTC)temp
F
wind
direction
speed
knots
gust
knots
rain 1hr
in
rain 24hr
in
rain mn
in
humidity
%
barometer
mb
20260506031904 52 48 5.2 10.4 0.00 0.00 0.00 76 1011.5
20260506031403 52 29 3.5 8.7 0.00 0.00 0.00 77 1011.5
20260506030404 52 59 3.5 6.1 0.00 0.00 0.00 77 1011.5
20260506025903 52 31 3.5 6.1 0.00 0.00 0.00 77 1011.6
20260506025403 52 72 4.3 7.0 0.00 0.00 0.00 78 1011.6
20260506024903 53 46 4.3 8.7 0.00 0.00 0.00 78 1011.6
20260506024403 53 27 4.3 7.0 0.00 0.00 0.00 78 1011.6
20260506023903 53 35 4.3 7.0 0.00 0.00 0.00 77 1011.6
20260506023404 53 38 3.5 7.0 0.00 0.00 0.00 77 1011.6
20260506022904 53 62 5.2 7.8 0.00 0.00 0.00 76 1011.6
20260506022404 53 39 4.3 8.7 0.00 0.00 0.00 76 1011.6
20260506021904 53 37 4.3 10.4 0.00 0.00 0.00 76 1011.6
20260506020904 53 47 3.5 7.0 0.00 0.00 0.00 75 1011.6
20260506020404 53 61 2.6 5.2 0.00 0.00 0.00 75 1011.6
20260506015903 53 44 1.7 4.3 0.00 0.00 0.00 75 1011.6
20260506015404 53 37 3.5 7.0 0.00 0.00 0.00 75 1011.6
20260506014403 53 43 2.6 6.1 0.00 0.00 0.00 74 1011.6
20260506013903 53 45 3.5 6.1 0.00 0.00 0.00 74 1011.6
20260506013403 53 39 4.3 8.7 0.00 0.00 0.00 74 1011.6
20260506012904 53 50 5.2 10.4 0.00 0.00 0.00 74 1011.6
20260506012404 53 59 3.5 11.3 0.00 0.00 0.00 74 1011.6
20260506011903 53 38 1.7 5.2 0.00 0.00 0.00 73 1011.6
20260506011404 54 46 2.6 5.2 0.00 0.00 0.00 73 1011.6
20260506010903 54 59 4.3 8.7 0.00 0.00 0.00 73 1011.6
20260506010403 54 49 2.6 8.7 0.00 0.00 0.00 72 1011.6
20260506005903 54 53 4.3 8.7 0.00 0.00 0.00 72 1011.6
20260506005403 54 41 4.3 10.4 0.00 0.00 0.00 72 1011.6
20260506004903 54 54 4.3 7.0 0.00 0.00 0.00 72 1011.5
20260506004404 54 42 3.5 10.4 0.00 0.00 0.00 71 1011.7
20260506003903 54 60 5.2 11.3 0.00 0.00 0.00 70 1011.7
20260506003404 54 59 6.1 10.4 0.00 0.00 0.00 70 1011.7
20260506002404 54 56 3.5 10.4 0.00 0.00 0.00 70 1011.7
20260506001904 54 75 6.1 11.3 0.00 0.00 0.00 71 1011.7
20260506001404 54 53 3.5 10.4 0.00 0.00 0.00 72 1011.6
20260506000904 54 53 2.6 6.1 0.00 0.00 0.00 73 1011.6
20260506000404 55 52 3.5 6.1 0.00 0.00 0.00 73 1011.6
20260505235904 55 62 1.7 4.3 0.00 0.00 0.00 73 1011.5
20260505235404 55 62 3.5 10.4 0.00 0.00 0.00 72 1011.5
20260505234904 55 52 4.3 11.3 0.00 0.00 0.00 73 1011.5
20260505233904 55 39 2.6 7.0 0.00 0.00 0.00 74 1011.5
20260505232404 55 52 2.6 6.1 0.00 0.00 0.00 76 1011.4
20260505231904 55 37 2.6 6.1 0.00 0.00 0.00 76 1011.3
20260505230903 55 37 3.5 5.2 0.00 0.00 0.00 75 1011.3
20260505230404 55 34 2.6 6.1 0.00 0.00 0.00 75 1011.3
20260505225904 55 31 2.6 6.1 0.00 0.00 0.00 74 1011.5
20260505225404 55 25 2.6 5.2 0.00 0.00 0.00 74 1011.5
20260505224904 55 22 2.6 7.0 0.00 0.00 0.00 74 1011.5
20260505224404 55 7 4.3 6.1 0.00 0.00 0.00 74 1011.5
20260505223404 55 0 2.6 4.3 0.00 0.00 0.00 74 1011.4
20260505222404 56 339 2.6 6.1 0.00 0.00 0.00 74 1011.4
20260505221904 56 346 2.6 6.1 0.00 0.00 0.00 73 1011.4
20260505221404 56 9 4.3 5.2 0.00 0.00 0.00 73 1011.4
20260505220904 56 350 3.5 5.2 0.00 0.00 0.00 73 1011.4
20260505220404 56 346 4.3 6.1 0.00 0.00 0.00 73 1011.4
20260505215903 56 0 3.5 7.0 0.00 0.00 0.00 73 1011.4
20260505214904 56 342 2.6 6.1 0.00 0.00 0.00 73 1011.4
20260505214404 56 355 2.6 4.3 0.00 0.00 0.00 73 1011.4
20260505213904 56 0 2.6 6.1 0.00 0.00 0.00 73 1011.4
20260505213403 56 16 2.6 6.1 0.00 0.00 0.00 73 1011.4
20260505212904 56 357 4.3 6.1 0.00 0.00 0.00 73 1011.4
20260505212403 56 8 2.6 6.1 0.00 0.00 0.00 73 1011.4
20260505211905 56 323 1.7 5.2 0.00 0.00 0.00 73 1011.4
20260505211404 56 340 3.5 6.1 0.00 0.00 0.00 74 1011.4
20260505210904 56 344 3.5 7.0 0.00 0.00 0.00 74 1011.4
20260505205904 56 336 2.6 4.3 0.00 0.00 0.00 74 1011.3
20260505205403 56 336 1.7 4.3 0.00 0.00 0.00 74 1011.3
20260505204904 56 333 2.6 5.2 0.00 0.00 0.00 74 1011.3
20260505204404 56 330 2.6 5.2 0.00 0.00 0.00 74 1011.3
20260505203904 56 328 2.6 5.2 0.00 0.00 0.00 74 1011.3
20260505203404 57 329 1.7 5.2 0.00 0.00 0.00 74 1011.3
20260505202404 57 352 2.6 7.0 0.00 0.00 0.00 74 1011.2
20260505201904 57 335 2.6 5.2 0.00 0.00 0.00 74 1011.2
20260505201403 57 336 2.6 5.2 0.00 0.00 0.00 73 1011.3
20260505200904 57 337 2.6 5.2 0.00 0.00 0.00 73 1011.0
20260505200403 57 339 4.3 6.1 0.00 0.00 0.00 73 1011.0
20260505195404 58 344 2.6 6.1 0.00 0.00 0.00 72 1011.0
20260505194903 58 329 2.6 5.2 0.00 0.00 0.00 72 1011.0
20260505194404 58 343 2.6 7.0 0.00 0.00 0.00 72 1011.0
20260505193903 58 341 5.2 7.0 0.00 0.00 0.00 72 1010.8
20260505193403 58 329 3.5 5.2 0.00 0.00 0.00 72 1010.8
20260505192904 58 333 2.6 5.2 0.00 0.00 0.00 72 1010.8
20260505192403 58 329 2.6 4.3 0.00 0.00 0.00 72 1010.8
20260505191904 58 337 2.6 4.3 0.00 0.00 0.00 72 1010.8
20260505191404 58 17 1.7 4.3 0.00 0.00 0.00 72 1010.8
20260505190903 58 339 1.7 2.6 0.00 0.00 0.00 71 1010.7
20260505190403 58 7 1.7 4.3 0.00 0.00 0.00 71 1010.7
20260505185903 58 356 1.7 4.3 0.00 0.00 0.00 70 1010.7
20260505185403 59 353 2.6 5.2 0.00 0.00 0.00 70 1010.7
20260505184903 59 358 1.7 4.3 0.00 0.00 0.00 70 1010.7
20260505184404 59 2 2.6 4.3 0.00 0.00 0.00 69 1010.5
20260505183904 59 343 2.6 4.3 0.00 0.00 0.00 69 1010.5
20260505183403 59 339 1.7 4.3 0.00 0.00 0.00 69 1010.5
20260505182404 59 339 2.6 4.3 0.00 0.00 0.00 69 1010.6
20260505181904 59 341 2.6 4.3 0.00 0.00 0.00 69 1010.6
20260505181403 59 16 1.7 4.3 0.00 0.00 0.00 68 1010.6
20260505175904 59 8 1.7 5.2 0.00 0.00 0.00 68 1010.6
20260505175404 59 7 2.6 4.3 0.00 0.00 0.00 68 1010.6
20260505174904 59 341 2.6 5.2 0.00 0.00 0.00 68 1010.6
20260505174404 59 346 2.6 5.2 0.00 0.00 0.00 67 1010.8
20260505173903 60 337 1.7 4.3 0.00 0.00 0.00 67 1010.8
20260505173403 60 8 0.9 4.3 0.00 0.00 0.00 67 1010.8
20260505172904 60 344 1.7 5.2 0.00 0.00 0.00 67 1010.8
20260505172404 60 349 2.6 4.3 0.00 0.00 0.00 66 1010.8
20260505171903 60 356 2.6 6.1 0.00 0.00 0.00 65 1010.8
20260505171404 60 0 2.6 7.0 0.00 0.00 0.00 65 1010.8
20260505170403 60 15 2.6 5.2 0.00 0.00 0.00 66 1010.8
20260505165904 60 4 4.3 7.0 0.00 0.00 0.00 66 1010.8
20260505165403 60 15 4.3 6.1 0.00 0.00 0.00 65 1010.8
20260505164903 60 0 2.6 6.1 0.00 0.00 0.00 65 1010.8
20260505164404 60 3 2.6 5.2 0.00 0.00 0.00 65 1010.7
20260505163904 61 71 3.5 7.8 0.00 0.00 0.00 66 1010.7
20260505163404 61 20 1.7 5.2 0.00 0.00 0.00 65 1010.7
20260505162903 61 36 1.7 6.1 0.00 0.00 0.00 64 1010.7
20260505162404 61 32 2.6 5.2 0.00 0.00 0.00 64 1010.7
20260505160903 61 357 2.6 5.2 0.00 0.00 0.00 65 1010.8
20260505160403 61 14 1.7 6.1 0.00 0.00 0.00 66 1010.8
20260505152904 61 337 2.6 6.1 0.00 0.00 0.00 63 1011.0
20260505152403 61 31 4.3 7.0 0.00 0.00 0.00 62 1010.9
20260505151904 62 10 1.7 4.3 0.00 0.00 0.00 62 1010.9
20260505151403 62 338 1.7 6.1 0.00 0.00 0.00 61 1011.2
20260505150904 62 46 2.6 5.2 0.00 0.00 0.00 61 1011.2
20260505150404 61 6 1.7 4.3 0.00 0.00 0.00 63 1011.2
20260505140403 62 37 4.3 5.2 0.00 0.00 0.00 64 1011.3
20260505124904 59 24 6.1 13.0 0.00 0.00 0.00 67 1011.7
20260505124404 60 321 6.1 12.2 0.00 0.00 0.00 67 1011.7
20260505123904 60 24 4.3 7.8 0.00 0.00 0.00 69 1011.7
20260505123403 59 351 7.8 12.2 0.00 0.00 0.00 69 1011.7
20260505122904 59 35 6.1 12.2 0.00 0.00 0.00 69 1011.6
20260505122404 59 18 6.1 10.4 0.00 0.00 0.00 68 1011.6
20260505121404 60 6 8.7 12.2 0.00 0.00 0.00 66 1011.6
20260505120904 60 16 7.0 12.2 0.00 0.00 0.00 66 1011.6
20260505115904 59 3 7.0 12.2 0.00 0.00 0.00 67 1011.6
20260505114904 59 327 7.0 12.2 0.00 0.00 0.00 67 1011.6
20260505114403 59 14 6.1 11.3 0.00 0.00 0.00 66 1011.6
20260505113403 60 25 7.8 14.8 0.00 0.00 0.00 66 1011.6
20260505112904 60 15 5.2 10.4 0.00 0.00 0.00 67 1011.8
20260505112403 60 8 6.1 13.0 0.00 0.00 0.00 64 1011.8
20260505111903 61 339 5.2 8.7 0.00 0.00 0.00 66 1011.8
20260505111404 60 28 8.7 13.0 0.00 0.00 0.00 66 1011.8
20260505110903 61 29 7.8 13.9 0.00 0.00 0.00 64 1011.8
20260505110403 61 66 6.1 13.0 0.00 0.00 0.00 66 1011.8
20260505101904 61 22 7.0 13.9 0.00 0.00 0.00 67 1012.1
20260505101403 60 29 5.2 10.4 0.00 0.00 0.00 70 1012.1
20260505100403 60 24 6.1 11.3 0.00 0.00 0.00 71 1012.1
20260505095404 59 344 6.1 13.0 0.00 0.00 0.00 74 1012.1
20260505094903 59 352 6.1 12.2 0.00 0.00 0.00 74 1012.1
20260505094403 60 7 7.0 11.3 0.00 0.00 0.00 74 1012.2
20260505093904 59 346 4.3 11.3 0.00 0.00 0.00 77 1012.2
20260505093404 58 355 5.2 8.7 0.00 0.00 0.00 77 1012.2
20260505092903 57 16 5.2 12.2 0.00 0.00 0.00 77 1012.2
20260505092403 58 343 6.1 10.4 0.00 0.00 0.00 75 1012.2
20260505091903 58 359 7.0 11.3 0.00 0.00 0.00 74 1012.2
20260505091403 59 347 6.1 11.3 0.00 0.00 0.00 75 1012.2
20260505090903 58 343 5.2 7.8 0.00 0.00 0.00 75 1012.2
20260505090403 58 27 5.2 8.7 0.00 0.00 0.00 76 1012.4
20260505085904 58 354 4.3 12.2 0.00 0.00 0.00 76 1012.4
20260505085403 58 52 5.2 8.7 0.00 0.00 0.00 77 1012.4
20260505084404 58 327 5.2 11.3 0.00 0.00 0.00 79 1012.4
20260505083403 57 356 4.3 10.4 0.00 0.00 0.00 80 1012.4
20260505082904 57 357 7.0 11.3 0.00 0.00 0.00 81 1012.4
20260505082403 56 343 6.1 12.2 0.00 0.00 0.00 82 1012.3
20260505081903 56 337 6.1 7.8 0.00 0.00 0.00 82 1012.3
20260505081403 56 323 4.3 10.4 0.00 0.00 0.00 82 1012.3
20260505080404 56 342 4.3 8.7 0.00 0.00 0.00 83 1012.3
20260505075404 55 14 4.3 6.1 0.00 0.00 0.00 85 1012.3
20260505074403 54 13 4.3 6.1 0.00 0.00 0.00 86 1012.3
20260505073903 54 13 2.6 4.3 0.00 0.00 0.00 87 1012.4
20260505073403 53 35 1.7 4.3 0.00 0.00 0.00 88 1012.4
20260505072903 53 12 2.6 5.2 0.00 0.00 0.00 88 1012.4
20260505072403 53 25 3.5 6.1 0.00 0.00 0.00 88 1012.4
20260505071904 53 13 3.5 7.0 0.00 0.00 0.00 88 1012.4
20260505070904 53 28 4.3 7.0 0.00 0.00 0.00 89 1012.4
20260505070403 53 38 5.2 7.0 0.00 0.00 0.00 88 1012.4
20260505065903 53 27 3.5 6.1 0.00 0.00 0.00 89 1012.4
20260505065404 53 8 4.3 7.0 0.00 0.00 0.00 89 1012.5
20260505064903 53 21 4.3 7.8 0.00 0.00 0.00 89 1012.5
20260505064403 52 18 4.3 6.1 0.00 0.00 0.00 89 1012.6
20260505063903 52 23 4.3 7.0 0.00 0.00 0.00 89 1012.6
20260505063403 52 35 1.7 5.2 0.00 0.00 0.00 89 1012.6
20260505062404 52 29 4.3 7.0 0.00 0.00 0.00 89 1012.6
20260505061904 52 19 4.3 6.1 0.00 0.00 0.00 89 1012.6
20260505060903 52 13 4.3 7.8 0.00 0.00 0.00 89 1012.5
20260505055904 52 27 4.3 7.0 0.00 0.00 0.00 89 1012.5
20260505055403 52 17 5.2 10.4 0.00 0.00 0.00 89 1012.5
20260505054904 53 354 5.2 8.7 0.00 0.00 0.00 89 1012.3
20260505054403 53 14 2.6 7.8 0.00 0.00 0.00 89 1012.3
20260505053903 53 15 4.3 6.1 0.00 0.00 0.00 89 1012.3
20260505052904 53 7 2.6 5.2 0.00 0.00 0.00 89 1012.3
20260505052404 53 26 2.6 5.2 0.00 0.00 0.00 89 1012.3
20260505051904 53 33 2.6 6.1 0.00 0.00 0.00 89 1012.2
20260505051403 53 22 2.6 5.2 0.00 0.00 0.00 89 1012.2
20260505050403 53 10 2.6 6.1 0.00 0.00 0.00 89 1012.2
20260505041403 54 19 4.3 6.1 0.00 0.00 0.00 89 1012.5
20260505040903 54 23 4.3 7.8 0.00 0.00 0.00 89 1012.5
20260505040403 54 13 2.6 5.2 0.00 0.00 0.00 89 1012.5
20260505035903 54 7 1.7 6.1 0.00 0.00 0.00 89 1012.5
20260505035403 54 21 2.6 5.2 0.00 0.00 0.00 89 1012.5
20260505034903 54 26 1.7 4.3 0.00 0.00 0.00 90 1012.5
20260505034403 54 9 3.5 6.1 0.00 0.00 0.00 90 1012.5
20260505033404 54 25 0.0 0.0 0.00 0.00 0.00 90 1012.5
20260505032903 54 25 0.0 0.0 0.00 0.00 0.00 90 1012.5
20260505032403 54 26 0.0 0.0 0.00 0.00 0.00 90 1012.5